Date String (YYYY-MM-DD hh:mm:ss) UTC,Instrument flags,absolute air pressure of the measurement (hPa),sample flow rate (lpm),inlet stack bypass flow (lpm),air temperature of the measurement (°C),ambient temperature measured by the external sensor (°C),aerosol sample conditioner tube jacket temperature (°C),OPC LED temperature (°C),internal box temperature (°C),relative humidity of the measurement (%),span deviation,mass concentration of particles derived from Lorenz-Mie calculation of OPC scattering (μg/m³),mass concentration of particles derived from Lorenz-Mie calculation of OPC scattering (μg/m³),mass concentration of particles derived from Lorenz-Mie calculation of OPC scattering (μg/m³)
DateTimeUTC,F1_M11,P_M11,Q1_M11,Q2_M11,T1_M11,T2_M11,T3_M11,T4_M11,T5_M11,U1_M11,ZSPAN_M11,X2_M11,X0_M11,X1_M11
2023-12-02 12:00:00,SystemResetWarning,0820.8,5.00,000.00,018.8,018.0,000.0,027.2,020.0,12.7,0003.4,0009.52,0013.38,0009.14
2023-12-02 12:01:00,SystemResetWarning,0820.8,5.00,000.00,018.8,018.0,000.0,027.2,020.0,12.8,0003.9,0009.51,0013.42,0009.10
2023-12-02 12:02:00,SystemResetWarning,0820.9,5.00,000.00,018.8,018.0,000.0,027.2,020.0,12.8,0003.9,0009.50,0013.47,0009.05
2023-12-02 12:03:00,SystemResetWarning,0821.1,4.99,000.00,018.8,017.9,000.0,027.2,020.0,12.9,0004.2,0009.40,0013.29,0008.93
2023-12-02 12:04:00,SystemResetWarning,0820.9,4.99,000.00,018.8,017.9,000.0,027.3,020.0,13.0,0005.2,0009.02,0012.41,0008.55
2023-12-02 12:05:00,SystemResetWarning,0821.1,5.00,000.00,018.8,017.9,000.0,027.2,020.0,12.9,0005.4,0008.75,0012.08,0008.32
2023-12-02 12:06:00,SystemResetWarning,0821.0,5.00,000.00,018.8,017.8,000.0,027.2,020.0,12.8,0005.5,0008.67,0011.99,0008.24
2023-12-02 12:07:00,SystemResetWarning,0821.0,5.01,000.00,018.8,017.8,000.0,027.3,020.0,12.8,0004.9,0008.65,0012.04,0008.18
2023-12-02 12:08:00,SystemResetWarning,0821.1,5.00,000.00,018.8,017.8,000.0,027.3,020.0,12.8,0005.0,0008.60,0011.84,0008.14
2023-12-02 12:09:00,SystemResetWarning,0821.1,5.00,000.00,018.7,017.7,000.0,027.3,020.0,12.9,0005.3,0008.58,0011.59,0008.11
2023-12-02 12:10:00,SystemResetWarning,0821.0,5.00,000.00,018.7,017.7,000.0,027.3,020.0,12.8,0005.4,0008.63,0011.63,0008.16
2023-12-02 12:11:00,SystemResetWarning,0821.0,5.00,000.00,018.7,017.7,000.0,027.3,020.0,12.8,0005.5,0008.73,0011.76,0008.25
2023-12-02 12:12:00,SystemResetWarning,0821.1,5.00,000.00,018.7,017.7,000.0,027.3,020.0,12.8,0005.3,0008.77,0011.81,0008.29
2023-12-02 12:13:00,SystemResetWarning,0821.1,4.99,000.00,018.7,017.7,000.0,027.3,020.0,12.8,0005.4,0008.74,0011.73,0008.29
2023-12-02 12:14:00,SystemResetWarning,0821.1,4.99,000.00,018.7,017.7,000.0,027.3,020.0,12.8,0005.9,0008.71,0011.65,0008.28
2023-12-02 12:15:00,SystemResetWarning,0821.1,5.01,000.00,018.7,017.7,000.0,027.2,020.0,12.8,0005.4,0008.65,0011.56,0008.26
2023-12-02 12:16:00,SystemResetWarning,0821.1,5.01,000.00,018.7,017.7,000.0,027.2,020.0,13.1,0005.1,0008.71,0011.64,0008.31
2023-12-02 12:17:00,SystemResetWarning,0821.1,5.00,000.00,018.7,017.7,000.0,027.3,020.0,13.2,0004.8,0008.73,0011.63,0008.31
2023-12-02 12:18:00,SystemResetWarning,0821.0,5.00,000.00,018.7,017.6,000.0,027.3,020.0,13.1,0005.0,0008.70,0011.54,0008.30
2023-12-02 12:19:00,SystemResetWarning,0821.1,4.99,000.00,018.7,017.6,000.0,027.3,020.0,13.2,0004.9,0008.67,0011.56,0008.25
2023-12-02 12:20:00,SystemResetWarning,0821.1,5.00,000.00,018.7,017.6,000.0,027.3,020.0,13.2,0004.7,0008.63,0011.62,0008.22
2023-12-02 12:21:00,SystemResetWarning,0821.1,5.00,000.00,018.7,017.6,000.0,027.3,020.0,13.0,0004.5,0008.60,0012.34,0008.18
2023-12-02 12:22:00,SystemResetWarning,0821.1,5.00,000.00,018.7,017.5,000.0,027.2,020.0,12.9,0004.2,0008.48,0012.23,0008.07
2023-12-02 12:23:00,SystemResetWarning,0821.1,5.00,000.00,018.7,017.5,000.0,027.2,020.0,12.8,0004.2,0008.55,0012.30,0008.14
2023-12-02 12:24:00,SystemResetWarning,0821.1,5.00,000.00,018.7,017.6,000.0,027.2,020.3,12.8,0004.3,0008.76,0012.51,0008.35
2023-12-02 12:25:00,SystemResetWarning,0821.5,5.01,000.00,018.8,018.3,000.0,027.2,020.8,12.8,0003.2,0008.90,0012.61,0008.49
2023-12-02 12:26:00,SystemResetWarning,0821.4,4.99,000.00,019.0,018.8,000.0,027.2,020.8,12.8,0003.6,0009.11,0012.82,0008.70
2023-12-02 12:27:00,SystemResetWarning,0821.2,4.99,000.00,018.9,018.7,000.0,027.2,020.3,12.6,0003.4,0009.25,0012.94,0008.83
2023-12-02 12:28:00,SystemResetWarning,0821.4,5.00,000.00,018.9,018.5,000.0,027.2,020.0,12.7,0002.2,0009.28,0013.48,0008.88
2023-12-02 12:29:00,SystemResetWarning,0821.2,5.01,000.00,018.9,018.4,000.0,027.2,020.0,12.7,0003.1,0009.29,0013.60,0008.90
2023-12-02 12:30:00,SystemResetWarning,0821.1,5.00,000.00,018.8,018.2,000.0,027.2,020.0,12.4,0003.9,0009.32,0013.82,0008.93
2023-12-02 12:31:00,SystemResetWarning,0821.0,5.00,000.00,018.8,018.1,000.0,027.2,020.0,12.0,0003.3,0009.37,0013.94,0008.98
2023-12-02 12:32:00,SystemResetWarning,0821.2,5.00,000.00,018.8,018.0,000.0,027.3,020.0,12.1,0003.2,0009.44,0013.57,0009.03
2023-12-02 12:33:00,SystemResetWarning,0821.1,4.99,000.00,018.8,018.0,000.0,027.3,020.0,12.4,0002.7,0009.49,0013.31,0009.09
2023-12-02 12:34:00,SystemResetWarning,0821.1,4.99,000.00,018.8,017.9,000.0,027.3,020.0,12.6,0002.0,0009.36,0013.13,0008.98
2023-12-02 12:35:00,SystemResetWarning,0821.2,5.00,000.00,018.8,017.8,000.0,027.3,020.0,12.7,0003.0,0009.12,0012.83,0008.76
2023-12-02 12:36:00,SystemResetWarning,0821.1,5.00,000.00,018.8,017.8,000.0,027.3,020.0,12.9,0003.9,0008.95,0012.64,0008.61
2023-12-02 12:37:00,SystemResetWarning,0821.1,5.00,000.00,018.7,017.7,000.0,027.3,020.0,13.1,0003.9,0008.67,0012.39,0008.35
2023-12-02 12:38:00,SystemResetWarning,0821.2,5.00,000.00,018.7,017.7,000.0,027.3,020.0,13.3,0003.8,0008.20,0012.22,0007.88
2023-12-02 12:39:00,SystemResetWarning,0821.1,5.00,000.00,018.7,017.6,000.0,027.3,020.0,13.4,0005.0,0007.92,0012.31,0007.59
2023-12-02 12:40:00,SystemResetWarning,0821.1,5.00,000.00,018.7,017.6,000.0,027.3,020.0,13.3,0005.3,0007.90,0012.13,0007.54
2023-12-02 12:41:00,SystemResetWarning,0821.1,5.00,000.00,018.7,017.6,000.0,027.2,020.1,13.2,0005.2,0007.92,0011.93,0007.57
2023-12-02 12:42:00,SystemResetWarning,0821.1,5.01,000.00,018.8,018.0,000.0,027.2,020.5,13.1,0005.3,0007.94,0011.80,0007.59
2023-12-02 12:43:00,SystemResetWarning,0821.1,5.00,000.00,018.9,018.8,000.0,027.2,020.9,13.0,0005.1,0008.04,0011.78,0007.70
2023-12-02 12:44:00,SystemResetWarning,0821.1,4.99,000.00,019.0,018.9,000.0,027.2,020.5,12.8,0004.5,0008.20,0011.96,0007.84
2023-12-02 12:45:00,SystemResetWarning,0821.1,5.00,000.00,018.9,018.7,000.0,027.2,020.1,12.8,0000.8,0008.47,0012.55,0008.09
2023-12-02 12:46:00,SystemResetWarning,0821.4,5.01,000.00,018.9,018.5,000.0,027.2,020.0,12.7,0000.0,0008.72,0012.87,0008.33
2023-12-02 12:47:00,SystemResetWarning,0821.2,5.01,000.00,018.8,018.4,000.0,027.2,020.0,12.7,0000.0,0008.92,0013.08,0008.53
2023-12-02 12:48:00,SystemResetWarning,0821.0,5.01,000.00,018.8,018.3,000.0,027.2,020.0,12.4,0000.0,0009.24,0013.41,0008.81
2023-12-02 12:49:00,SystemResetWarning,0821.1,5.00,000.00,018.8,018.1,000.0,027.2,020.0,12.6,0002.1,0009.72,0013.81,0009.26
2023-12-02 12:50:00,SystemResetWarning,0821.2,4.99,000.00,018.8,018.0,000.0,027.2,020.0,12.6,0004.1,0010.12,0013.68,0009.65
2023-12-02 12:51:00,SystemResetWarning,0821.0,4.99,000.00,018.8,017.9,000.0,027.3,020.0,12.5,0003.0,0010.25,0013.71,0009.79
2023-12-02 12:52:00,SystemResetWarning,0821.1,5.00,000.00,018.8,017.9,000.0,027.3,020.0,12.4,0002.3,0010.36,0013.85,0009.90
2023-12-02 12:53:00,SystemResetWarning,0821.0,5.00,000.00,018.8,017.8,000.0,027.2,020.0,12.4,0001.1,0010.33,0013.86,0009.89
2023-12-02 12:54:00,SystemResetWarning,0821.0,5.00,000.00,018.8,017.8,000.0,027.2,020.0,12.4,0001.9,0010.16,0013.66,0009.74
2023-12-02 12:55:00,SystemResetWarning,0821.2,5.00,000.00,018.8,017.7,000.0,027.3,020.0,12.1,0003.3,0009.80,0013.31,0009.40
2023-12-02 12:56:00,SystemResetWarning,0821.0,5.00,000.00,018.7,017.7,000.0,027.3,020.0,11.9,0001.8,0009.57,0012.77,0009.18
2023-12-02 12:57:00,SystemResetWarning,0821.0,5.01,000.00,018.7,017.7,000.0,027.3,020.0,11.8,0002.4,0009.30,0012.49,0008.90
2023-12-02 12:58:00,SystemResetWarning,0821.1,5.00,000.00,018.7,017.6,000.0,027.3,020.0,11.8,0000.0,0009.01,0012.25,0008.61
2023-12-02 12:59:00,SystemResetWarning,0821.0,5.00,000.00,018.7,017.6,000.0,027.2,020.0,11.8,0000.0,0008.63,0011.85,0008.26
